This is the latest recevied weather packets stored in our database for station/object WD4HMR. If no packets are shown the sender has not sent any weather packets the latest 10 day(s).
| Time | Temp. | Humidity | Pressure | Rain* | Wind** | Luminosity | Snow |
|---|---|---|---|---|---|---|---|
| 1778157605 | 14.44° C | 100% | 1011.4 hPa | 0 mm | - | 124 W/m² | - |
| 1778157305 | 14.44° C | 100% | 1011.4 hPa | 0 mm | - | 95 W/m² | - |
| 1778156405 | 14.44° C | 100% | 1011 hPa | 0 mm | - | 105 W/m² | - |
| 1778155205 | 14.44° C | 100% | 1010.6 hPa | 0 mm | - | 32 W/m² | - |
| 1778153705 | 14.44° C | 100% | 1010.3 hPa | 0 mm | - | 12 W/m² | - |
| 1778153104 | 14.44° C | 99% | 1010.2 hPa | 0 mm | - | 4 W/m² | - |
| 1778152505 | 14.44° C | 99% | 1010.1 hPa | 0 mm | - | 4 W/m² | - |
| 1778152205 | 14.44° C | 99% | 1010.2 hPa | 0 mm | - | 3 W/m² | - |
| 1778151905 | 14.44° C | 99% | 1010.4 hPa | 0 mm | - | 2 W/m² | - |
| 1778150705 | 14.44° C | 99% | 1010.1 hPa | 0 mm | - | 0 W/m² | - |
| 1778150405 | 14.44° C | 100% | 1009.8 hPa | 0 mm | - | 0 W/m² | - |
| 1778148604 | 15° C | 100% | 1009.8 hPa | 0 mm | - | 0 W/m² | - |
| 1778147705 | 15° C | 100% | 1009.3 hPa | 0 mm | - | 0 W/m² | - |
| 1778147419 | 15.56° C | 99% | 1009.5 hPa | 0 mm | - | 0 W/m² | - |
| 1778146805 | 15.56° C | 99% | 1009.9 hPa | 0 mm | - | 0 W/m² | - |
| 1778146205 | 16.11° C | 99% | 1009.6 hPa | 0 mm | - | 0 W/m² | - |
| 1778145905 | 16.67° C | 99% | 1009.5 hPa | 0 mm | - | 0 W/m² | - |
| 1778145604 | 16.67° C | 99% | 1009.4 hPa | 0 mm | - | 0 W/m² | - |
| 1778144404 | 17.22° C | 100% | 1009.1 hPa | 0 mm | - | 0 W/m² | - |
| 1778144105 | 17.22° C | 99% | 1009.1 hPa | 0 mm | - | 0 W/m² | - |
| 1778143805 | 17.22° C | 99% | 1009.1 hPa | 0 mm | - | 0 W/m² | - |
| 1778143504 | 17.22° C | 99% | 1008.9 hPa | 0 mm | - | 0 W/m² | - |
| 1778141404 | 17.22° C | 98% | 1009.5 hPa | 0 mm | - | 0 W/m² | - |
| 1778141104 | 17.22° C | 98% | 1009.5 hPa | 0 mm | - | 0 W/m² | - |
| 1778139904 | 17.78° C | 98% | 1009.3 hPa | 0 mm | - | 0 W/m² | - |
* Rain latest hour (hover to see other rain measurements)
** Current wind speed in m/s (hover to see current wind gust speed)